Location: STAR School
(35.3054°N, 111.2976°W)
Time: 06:49:20
(UTC-07:00)

Vanguard 2 Rocket - Visible Passes

Search period start: 24 May 2019 00:00
Search period end: 03 June 2019 00:00
Orbit: 555 x 3325 km, 32.9° (Epoch: 23 May)

Date Brightness Start Highest point End Pass type
(mag) Time Alt. Az. Time Alt. Az. Time Alt. Az.
24 May 10.8 01:21:18 10° SE 01:24:20 10° SE 01:27:20 10° SE visible
24 May 10.2 03:26:16 15° SSW 03:40:45 35° SE 03:54:35 10° E visible
25 May 10.4 02:29:49 19° S 02:39:19 27° SE 02:52:51 10° E visible
25 May 9.7 04:36:59 10° SW 04:56:15 55° SSE 05:10:02 10° E visible
26 May 10.5 01:33:19 17° SSE 01:38:02 19° SE 01:49:30 10° E visible
26 May 9.9 03:39:05 17° SSW 03:54:37 46° SSE 04:09:35 10° E visible
27 May 10.8 00:36:45 11° SE 00:36:59 11° SE 00:41:38 10° ESE visible
27 May 10.1 02:42:31 24° S 02:53:00 37° SE 03:08:27 10° E visible
28 May 10.2 01:45:53 25° SSE 01:51:34 28° SE 02:06:18 10° E visible
28 May 9.8 03:51:38 16° SW 04:08:30 58° SSE 04:24:14 10° E visible
29 May 10.4 00:49:12 19° SE 00:50:26 20° SE 01:02:31 10° E visible
29 May 9.9 02:54:57 27° SSW 03:06:40 48° SSE 03:23:22 10° E visible
29 May 10.8 23:52:27 11° ESE 23:52:27 11° ESE 23:54:16 10° ESE visible
30 May 9.9 01:58:11 32° S 02:05:02 39° SE 02:21:46 10° E visible
30 May 9.7 04:03:56 14° SW 04:22:28 68° SSE 04:38:40 10° E visible
31 May 10.1 01:01:23 28° SSE 01:03:44 29° SE 01:19:10 10° E visible
31 May 9.7 03:07:08 26° SW 03:20:26 59° SSE 03:37:56 10° E visible
01 Jun 10.4 00:04:31 19° SE 00:04:31 19° SE 00:14:54 10° E visible
01 Jun 9.7 02:10:16 35° SSW 02:18:33 50° SSE 02:36:36 10° E visible
01 Jun 9.6 04:16:09 10° WSW 04:36:35 76° SSE 04:53:03 10° E visible
02 Jun 9.8 01:13:21 37° SSE 01:17:02 39° SE 01:34:32 10° E visible
02 Jun 9.6 03:19:05 22° SW 03:34:20 69° SSE 03:52:20 10° E visible
